STARLINK-1738, 46336

Orbit data source: Space-Track

STARLINK-1738, 46336 is a payload satellite owned by SpaceX/Seattle (US) in LEO that was launched on Thu, 03 Sep 2020 UTC via an FALCON 9 launch vehicle from the Air Force Eastern Test Range (AFETR). Payloads include a variety of satellites, spacecraft, and rockets equipped with specific instruments for various scientific and technological missions. These include communications satellites like Starlink; space stations such as the ISS; scientific satellites like the Hubble; Earth observation satellites from companies like Planet Labs, Umbra, and HawkEye 360; GPS; miniature CubeSats for education and research; and military/defense satellites.

Loading next visibility...
STARLINK-1738 details
Identifier
46336, 2020-062M
Orbit
LEO
Last TLE update7 hours ago
Origin
Flag of USSpaceX/Seattle (US)
ManufacturerSpaceX/Seattle
MissionOperational Commercial Communications
Bus & MotorSTARLINK, Unknown motor
Mass260 kg wet, ~248 kg dry
Launch date (UTC)
2020-09-03 (4 years ago)
Launch vehicle
FALCON 9
Launch site
Air Force Eastern Test Range (AFETR)
Object type
Payload
Rocket body
Debris
Shape & HBRBox + 1 Pan, 8.86 m
Radar Cross Section13.562 m², Large (>1 m²)

Expand to show TLE details & history

TLE from 7 hours ago
0 STARLINK-1738
1 46336U 20062M   24361.46796178  .00001418  00000-0  11412-3 0  9992
2 46336  53.0515 163.8689 0001506  92.7926 267.3236 15.06393555238724
Epoch: 2024-12-26T11:13Z
Definitive object data (Epoch: 2024-12-26T11:13:51.897Z)
Latitude0.00002°
Longitude-100.04425°
Altitude548.159 km
Speed7.589 km/s
True Right ascension10h 55m 28s
True Declination0° 00' 00"
Sunlit
Object was in daylight at TLE epoch
Visualization TLE readout
Latitude-1.57737°
Longitude79.79385°
Altitude548.292 km
Speed7.589 km/s
Apparent Right ascension01h 32m 11s
Apparent Declination-29° 30' 02"
Sunlit
Object is in daylight
Visualization observer readout
Local Sidereal Time17:46:44
Azimuth99.443° ESE
Elevation-37.763°
Doppler factor1
Orbital elements
Apogee altitude548.546 km
Perigee altitude546.46 km
Semi-major axis6,925.64 km
Eccentricity0.0001506
Inclination53.0515°
RAAN163.8689°
Arg. of periapsis92.7926°
True anomaly267.30636°
Mean anomaly267.3236°
Eccentric anomaly267.31498°
Mean motion3.76577 °/min
BSTAR0.00011412
Orbital period95.6 mins
Loading maneuver chart data...
Loading historical data...
Loading historical data...
Loading historical data...
Loading historical data...
Loading historical data...
Loading historical data...
Loading historical data...

STARLINK-1738 Visibility forecast

Observer location: undefined°, undefined

Span
Click to sort rows by Start time (UTC) header in descending order
Start Az.
Max El. time (UTC)
Max El. Az.
Max El.
End time (UTC)
End Az.
6 mins2024-12-26 19:39:15.123Z330.589° NNW2024-12-26 19:42:15.123Z28.256° NE26.489°2024-12-26 19:45:15.123Z85.727° E
6 mins2024-12-26 21:19:15.123Z292.28° WNW2024-12-26 21:22:15.123Z207.901° SW35.442°2024-12-26 21:25:15.123Z154.373° SSE
6 mins2024-12-27 12:52:15.123Z185.227° SSW2024-12-27 12:55:15.123Z116.423° SE27.087°2024-12-27 12:58:15.123Z69.25° E
5 mins2024-12-27 14:32:15.123Z275.034° WNW2024-12-27 14:34:15.123Z330.132° NNW31.94°2024-12-27 14:37:15.123Z33.169° NE
|